QPF
0.01 0.01 0.01 0.01 0.01 0.01 0.01 0.01 0.01 0.01 0.00 0.01 0.01 0.01 0.00 0.00 0.00 0.00 0.00 0.00 0.01 0.01 0.01 0.01 0.00 0.00 0.00 0.00 0.01 0.01 0.00 0.00 0.00 0.00 0.01 0.01 0.01 0.01 0.00 0.00 0.00 0.00 0.00
0.01 0.01 0.01 0.01 0.01 0.01 0.01 0.02 0.02 0.01 0.01 0.00 0.00 0.00 0.00 0.00 0.00 0.00 0.00 0.00 0.00 0.01 0.01 0.00 0.00 0.00 0.00 0.00 0.01 0.00 0.00 0.00 0.00 0.00 0.00 0.00 0.00 0.00 0.01 0.00 0.00 0.00 0.00
0.01 0.02 0.01 0.01 0.01 0.01 0.01 0.01 0.02 0.02 0.01 0.01 0.00 0.00 0.00 0.00 0.00 0.00 0.00 0.00 0.00 0.00 0.00 0.00 0.00 0.00 0.00 0.00 0.00 0.00 0.00 0.00 0.00 0.00 0.00 0.00 0.00 0.00 0.00 0.00 0.00 0.01 0.00
0.01 0.01 0.01 0.01 0.01 0.01 0.01 0.01 0.01 0.01 0.01 0.01 0.01 0.01 0.00 0.00 0.01 0.00 0.00 0.00 0.00 0.00 0.00 0.00 0.00 0.00 0.00 0.00 0.00 0.00 0.00 0.00 0.00 0.00 0.00 0.00 0.00 0.00 0.00 0.00 0.00 0.01 0.00
0.00 0.01 0.01 0.01 0.01 0.01 0.01 0.01 0.01 0.01 0.01 0.01 0.01 0.01 0.00 0.00 0.00 0.01 0.01 0.01 0.00 0.00 0.00 0.00 0.00 0.00 0.00 0.00 0.00 0.01 0.01 0.00 0.00 0.00 0.00 0.00 0.01 0.01 0.01 0.00 0.00 0.00 0.00
0.01 0.01 0.01 0.03 0.02 0.01 0.01 0.01 0.01 0.01 0.01 0.01 0.01 0.01 0.01 0.00 0.00 0.00 0.00 0.00 0.00 0.00 0.00 0.00 0.00 0.00 0.00 0.00 0.00 0.00 0.00 0.01 0.00 0.00 0.00 0.00 0.00 0.00 0.00 0.00 0.00 0.00 0.00
0.01 0.02 0.02 0.02 0.02 0.02 0.01 0.01 0.01 0.01 0.02 0.02 0.01 0.01 0.01 0.01 0.01 0.01 0.00 0.00 0.00 0.00 0.00 0.00 0.00 0.00 0.00 0.00 0.00 0.00 0.00 0.00 0.00 0.00 0.00 0.00 0.00 0.00 0.00 0.01 0.01 0.01 0.01
0.00 0.01 0.02 0.02 0.02 0.01 0.01 0.01 0.01 0.01 0.01 0.01 0.01 0.01 0.01 0.01 0.01 0.01 0.01 0.00 0.00 0.00 0.00 0.01 0.01 0.00 0.00 0.00 0.00 0.00 0.00 0.00 0.00 0.00 0.00 0.00 0.00 0.00 0.00 0.00 0.00 0.01 0.01
0.00 0.00 0.00 0.01 0.01 0.02 0.01 0.01 0.01 0.01 0.01 0.01 0.01 0.00 0.00 0.00 0.01 0.01 0.01 0.01 0.00 0.00 0.00 0.01 0.01 0.01 0.01 0.01 0.00 0.00 0.01 0.00 0.00 0.00 0.00 0.00 0.00 0.00 0.00 0.00 0.00 0.00 0.01
0.01 0.00 0.00 0.00 0.01 0.01 0.01 0.02 0.02 0.01 0.01 0.01 0.01 0.00 0.00 0.00 0.01 0.01 0.01 0.01 0.00 0.00 0.00 0.01 0.01 0.01 0.01 0.01 0.01 0.00 0.00 0.00 0.00 0.00 0.00 0.00 0.00 0.00 0.00 0.00 0.00 0.00 0.01
0.01 0.02 0.01 0.00 0.01 0.01 0.01 0.02 0.03 0.02 0.01 0.01 0.01 0.00 0.00 0.00 0.01 0.02 0.01 0.01 0.00 0.00 0.00 0.00 0.00 0.01 0.01 0.01 0.01 0.01 0.01 0.00 0.00 0.00 0.00 0.00 0.00 0.00 0.00 0.00 0.00 0.01 0.01
0.01 0.01 0.01 0.01 0.01 0.01 0.01 0.01 0.02 0.03 0.02 0.02 0.01 0.01 0.01 0.01 0.01 0.01 0.01 0.01 0.01 0.01 0.01 0.01 0.01 0.01 0.01 0.01 0.01 0.01 0.01 0.01 0.01 0.00 0.00 0.00 0.00 0.00 0.00 0.00 0.00 0.01 0.01
0.00 0.00 0.01 0.01 0.02 0.02 0.01 0.02 0.01 0.02 0.02 0.03 0.03 0.02 0.01 0.01 0.01 0.02 0.01 0.01 0.01 0.01 0.01 0.02 0.01 0.01 0.01 0.01 0.01 0.01 0.01 0.01 0.01 0.01 0.00 0.00 0.00 0.00 0.01 0.01 0.00 0.01 0.01
0.01 0.01 0.01 0.01 0.01 0.02 0.02 0.02 0.01 0.01 0.01 0.02 0.03 0.03 0.02 0.01 0.01 0.01 0.01 0.01 0.01 0.01 0.01 0.01 0.01 0.01 0.01 0.01 0.01 0.01 0.01 0.01 0.01 0.01 0.01 0.01 0.00 0.00 0.00 0.00 0.01 0.01 0.01
0.01 0.01 0.01 0.01 0.01 0.01 0.01 0.01 0.01 0.01 0.01 0.01 0.02 0.02 0.02 0.01 0.01 0.01 0.01 0.01 0.01 0.01 0.01 0.01 0.01 0.01 0.01 0.01 0.01 0.01 0.01 0.01 0.01 0.00 0.01 0.01 0.01 0.00 0.01 0.01 0.01 0.01 0.01
0.01 0.01 0.01 0.00 0.01 0.01 0.01 0.02 0.03 0.03 0.03 0.02 0.03 0.02 0.02 0.02 0.02 0.02 0.02 0.02 0.02 0.02 0.02 0.01 0.01 0.01 0.01 0.01 0.01 0.01 0.01 0.01 0.01 0.01 0.01 0.01 0.01 0.01 0.01 0.01 0.01 0.01 0.01
0.01 0.01 0.01 0.01 0.02 0.02 0.02 0.02 0.03 0.05 0.06 0.06 0.06 0.06 0.06 0.05 0.04 0.03 0.02 0.02 0.02 0.02 0.02 0.02 0.01 0.01 0.01 0.01 0.01 0.01 0.01 0.01 0.01 0.02 0.02 0.02 0.02 0.02 0.01 0.01 0.01 0.01 0.01
0.01 0.01 0.01 0.02 0.02 0.02 0.02 0.03 0.03 0.04 0.06 0.06 0.06 0.06 0.06 0.04 0.04 0.03 0.02 0.02 0.02 0.02 0.01 0.01 0.01 0.01 0.01 0.02 0.02 0.01 0.01 0.01 0.01 0.01 0.02 0.02 0.02 0.01 0.01 0.01 0.01 0.01 0.01
0.01 0.01 0.02 0.02 0.02 0.02 0.02 0.02 0.03 0.03 0.03 0.03 0.04 0.04 0.05 0.04 0.03 0.03 0.02 0.01 0.01 0.01 0.01 0.02 0.02 0.02 0.02 0.02 0.02 0.02 0.01 0.01 0.01 0.01 0.01 0.01 0.01 0.01 0.01 0.01 0.01 0.01 0.01
0.03 0.03 0.02 0.02 0.02 0.02 0.02 0.03 0.03 0.03 0.03 0.03 0.04 0.04 0.05 0.05 0.03 0.03 0.02 0.01 0.01 0.01 0.01 0.02 0.02 0.02 0.02 0.02 0.01 0.02 0.01 0.01 0.02 0.02 0.01 0.01 0.02 0.02 0.02 0.01 0.01 0.01 0.01
0.04 0.04 0.04 0.03 0.02 0.03 0.03 0.03 0.03 0.02 0.02 0.02 0.03 0.03 0.04 0.05 0.04 0.03 0.02 0.01 0.01 0.01 0.01 0.02 0.02 0.02 0.02 0.02 0.02 0.02 0.02 0.01 0.01 0.01 0.02 0.02 0.02 0.02 0.02 0.02 0.01 0.01 0.01
0.05 0.05 0.04 0.03 0.02 0.03 0.02 0.02 0.03 0.03 0.02 0.02 0.03 0.04 0.05 0.05 0.04 0.03 0.03 0.02 0.02 0.02 0.02 0.02 0.02 0.02 0.02 0.03 0.03 0.03 0.03 0.02 0.01 0.01 0.01 0.02 0.02 0.02 0.02 0.02 0.02 0.01 0.01
0.05 0.04 0.05 0.04 0.04 0.04 0.03 0.03 0.04 0.04 0.04 0.03 0.03 0.04 0.05 0.04 0.04 0.04 0.04 0.03 0.03 0.03 0.02 0.02 0.02 0.02 0.02 0.03 0.03 0.03 0.03 0.02 0.02 0.02 0.02 0.02 0.02 0.02 0.02 0.01 0.01 0.01 0.01
0.08 0.06 0.07 0.06 0.05 0.05 0.04 0.03 0.04 0.05 0.05 0.05 0.04 0.04 0.04 0.04 0.05 0.05 0.05 0.05 0.05 0.04 0.03 0.03 0.03 0.03 0.02 0.02 0.03 0.03 0.03 0.03 0.02 0.02 0.02 0.02 0.02 0.02 0.02 0.02 0.01 0.01 0.01
0.09 0.10 0.10 0.09 0.07 0.05 0.04 0.03 0.03 0.03 0.05 0.06 0.05 0.03 0.03 0.03 0.03 0.04 0.05 0.05 0.04 0.03 0.03 0.02 0.03 0.03 0.03 0.03 0.03 0.02 0.03 0.03 0.03 0.02 0.01 0.01 0.02 0.02 0.02 0.02 0.02 0.02 0.01
0.08 0.10 0.10 0.12 0.10 0.06 0.04 0.04 0.03 0.02 0.04 0.05 0.06 0.05 0.03 0.03 0.03 0.03 0.04 0.04 0.04 0.03 0.02 0.02 0.03 0.03 0.03 0.02 0.02 0.03 0.03 0.03 0.03 0.02 0.02 0.02 0.02 0.02 0.02 0.02 0.02 0.02 0.02
MSLP
1015.45 1015.89 1016.35 1016.81 1017.26 1017.66 1018.01 1018.31 1018.56 1018.78 1018.95 1019.08 1019.18 1019.24 1019.27 1019.27 1019.27 1019.27 1019.30 1019.38 1019.52 1019.71 1019.94 1020.18 1020.40 1020.57 1020.67 1020.67 1020.58 1020.41 1020.20 1019.97 1019.76 1019.58 1019.45 1019.35 1019.28 1019.21 1019.10 1018.95 1018.73 1018.46 1018.14
1015.53 1016.03 1016.55 1017.06 1017.54 1017.97 1018.36 1018.70 1018.99 1019.25 1019.47 1019.66 1019.82 1019.95 1020.04 1020.11 1020.16 1020.22 1020.29 1020.39 1020.53 1020.71 1020.91 1021.11 1021.29 1021.42 1021.48 1021.46 1021.35 1021.19 1020.99 1020.77 1020.58 1020.41 1020.28 1020.18 1020.09 1019.98 1019.83 1019.62 1019.34 1019.00 1018.62
1015.68 1016.25 1016.83 1017.38 1017.90 1018.36 1018.76 1019.12 1019.44 1019.72 1019.98 1020.22 1020.43 1020.61 1020.76 1020.89 1021.00 1021.10 1021.20 1021.32 1021.47 1021.63 1021.81 1021.98 1022.13 1022.22 1022.25 1022.21 1022.11 1021.95 1021.77 1021.58 1021.41 1021.27 1021.16 1021.06 1020.96 1020.83 1020.64 1020.38 1020.05 1019.65 1019.20
1015.89 1016.55 1017.19 1017.79 1018.33 1018.80 1019.22 1019.59 1019.92 1020.22 1020.50 1020.77 1021.02 1021.24 1021.44 1021.61 1021.76 1021.89 1022.02 1022.16 1022.30 1022.46 1022.61 1022.76 1022.88 1022.95 1022.97 1022.92 1022.82 1022.67 1022.51 1022.35 1022.21 1022.09 1022.00 1021.91 1021.81 1021.66 1021.45 1021.16 1020.79 1020.34 1019.84
1016.16 1016.89 1017.59 1018.23 1018.80 1019.29 1019.71 1020.09 1020.42 1020.74 1021.04 1021.32 1021.60 1021.85 1022.08 1022.28 1022.45 1022.60 1022.74 1022.88 1023.02 1023.17 1023.31 1023.43 1023.53 1023.59 1023.60 1023.55 1023.45 1023.32 1023.18 1023.04 1022.91 1022.81 1022.72 1022.64 1022.54 1022.39 1022.17 1021.87 1021.48 1021.00 1020.46
1016.42 1017.23 1017.99 1018.67 1019.26 1019.77 1020.21 1020.59 1020.93 1021.25 1021.57 1021.87 1022.16 1022.43 1022.68 1022.89 1023.08 1023.24 1023.38 1023.51 1023.64 1023.77 1023.90 1024.01 1024.10 1024.14 1024.15 1024.10 1024.00 1023.88 1023.74 1023.61 1023.48 1023.38 1023.30 1023.21 1023.11 1022.96 1022.74 1022.44 1022.04 1021.56 1021.01
1016.66 1017.53 1018.33 1019.05 1019.66 1020.19 1020.64 1021.04 1021.40 1021.74 1022.07 1022.39 1022.70 1022.99 1023.24 1023.46 1023.65 1023.80 1023.93 1024.05 1024.17 1024.29 1024.40 1024.50 1024.58 1024.62 1024.62 1024.57 1024.48 1024.36 1024.21 1024.07 1023.93 1023.81 1023.71 1023.61 1023.50 1023.35 1023.13 1022.84 1022.46 1021.99 1021.44
1016.83 1017.74 1018.58 1019.32 1019.96 1020.50 1020.97 1021.39 1021.77 1022.14 1022.50 1022.85 1023.18 1023.49 1023.75 1023.98 1024.16 1024.30 1024.42 1024.53 1024.62 1024.73 1024.83 1024.92 1025.00 1025.04 1025.05 1025.00 1024.91 1024.78 1024.62 1024.46 1024.29 1024.14 1024.01 1023.88 1023.75 1023.58 1023.37 1023.09 1022.73 1022.28 1021.75
1016.94 1017.87 1018.72 1019.48 1020.13 1020.68 1021.17 1021.61 1022.03 1022.43 1022.83 1023.22 1023.58 1023.91 1024.19 1024.42 1024.60 1024.74 1024.84 1024.93 1025.02 1025.10 1025.20 1025.29 1025.37 1025.42 1025.43 1025.40 1025.31 1025.17 1025.01 1024.82 1024.62 1024.44 1024.26 1024.10 1023.93 1023.74 1023.51 1023.23 1022.88 1022.45 1021.94
1017.00 1017.93 1018.77 1019.52 1020.16 1020.73 1021.23 1021.70 1022.15 1022.60 1023.04 1023.47 1023.87 1024.24 1024.54 1024.79 1024.97 1025.10 1025.20 1025.27 1025.34 1025.42 1025.51 1025.61 1025.70 1025.77 1025.80 1025.78 1025.70 1025.58 1025.40 1025.20 1024.98 1024.75 1024.53 1024.32 1024.10 1023.88 1023.62 1023.32 1022.96 1022.54 1022.03
1017.02 1017.93 1018.74 1019.46 1020.10 1020.66 1021.17 1021.66 1022.15 1022.64 1023.13 1023.61 1024.06 1024.47 1024.80 1025.07 1025.26 1025.40 1025.49 1025.55 1025.62 1025.69 1025.78 1025.88 1025.98 1026.07 1026.13 1026.14 1026.09 1025.98 1025.82 1025.61 1025.37 1025.12 1024.85 1024.59 1024.32 1024.04 1023.74 1023.40 1023.01 1022.56 1022.04
1017.04 1017.89 1018.67 1019.35 1019.96 1020.51 1021.03 1021.54 1022.06 1022.59 1023.13 1023.66 1024.16 1024.60 1024.97 1025.26 1025.47 1025.61 1025.70 1025.77 1025.83 1025.90 1025.99 1026.10 1026.22 1026.34 1026.43 1026.47 1026.46 1026.39 1026.25 1026.05 1025.81 1025.53 1025.23 1024.92 1024.59 1024.25 1023.89 1023.49 1023.04 1022.54 1021.98
1017.03 1017.83 1018.56 1019.20 1019.78 1020.32 1020.84 1021.37 1021.92 1022.49 1023.07 1023.65 1024.19 1024.67 1025.08 1025.39 1025.62 1025.77 1025.86 1025.92 1025.98 1026.05 1026.14 1026.26 1026.40 1026.54 1026.67 1026.75 1026.78 1026.75 1026.64 1026.47 1026.24 1025.95 1025.63 1025.27 1024.89 1024.48 1024.05 1023.57 1023.05 1022.48 1021.86
1016.98 1017.73 1018.41 1019.02 1019.57 1020.10 1020.63 1021.18 1021.75 1022.36 1022.98 1023.59 1024.17 1024.69 1025.12 1025.46 1025.71 1025.87 1025.97 1026.03 1026.08 1026.14 1026.23 1026.36 1026.51 1026.67 1026.83 1026.95 1027.03 1027.03 1026.97 1026.83 1026.61 1026.33 1025.99 1025.60 1025.17 1024.70 1024.18 1023.63 1023.03 1022.38 1021.68
1016.83 1017.54 1018.18 1018.77 1019.32 1019.85 1020.40 1020.97 1021.57 1022.20 1022.86 1023.50 1024.11 1024.66 1025.12 1025.48 1025.74 1025.91 1026.02 1026.08 1026.13 1026.19 1026.27 1026.39 1026.55 1026.72 1026.90 1027.05 1027.16 1027.21 1027.19 1027.08 1026.89 1026.62 1026.27 1025.86 1025.39 1024.86 1024.28 1023.65 1022.98 1022.25 1021.48
1016.52 1017.20 1017.84 1018.43 1018.99 1019.55 1020.12 1020.72 1021.35 1022.02 1022.70 1023.37 1024.00 1024.57 1025.05 1025.43 1025.71 1025.90 1026.01 1026.08 1026.12 1026.18 1026.26 1026.38 1026.53 1026.70 1026.89 1027.06 1027.19 1027.27 1027.28 1027.20 1027.04 1026.78 1026.44 1026.02 1025.52 1024.96 1024.33 1023.65 1022.92 1022.14 1021.31
1016.02 1016.70 1017.35 1017.96 1018.56 1019.15 1019.76 1020.39 1021.06 1021.75 1022.46 1023.15 1023.80 1024.39 1024.89 1025.29 1025.59 1025.80 1025.93 1026.01 1026.06 1026.12 1026.20 1026.31 1026.45 1026.62 1026.81 1026.98 1027.13 1027.23 1027.26 1027.21 1027.07 1026.83 1026.50 1026.08 1025.58 1025.00 1024.35 1023.64 1022.88 1022.06 1021.21
1015.33 1016.02 1016.69 1017.34 1017.98 1018.62 1019.27 1019.95 1020.65 1021.37 1022.09 1022.80 1023.47 1024.07 1024.59 1025.02 1025.34 1025.58 1025.74 1025.85 1025.93 1026.00 1026.09 1026.20 1026.34 1026.50 1026.68 1026.86 1027.01 1027.12 1027.17 1027.14 1027.02 1026.81 1026.50 1026.09 1025.60 1025.02 1024.37 1023.66 1022.89 1022.07 1021.22
1014.48 1015.19 1015.89 1016.58 1017.26 1017.94 1018.64 1019.35 1020.07 1020.81 1021.55 1022.27 1022.95 1023.57 1024.11 1024.57 1024.94 1025.22 1025.43 1025.58 1025.70 1025.81 1025.92 1026.04 1026.19 1026.35 1026.53 1026.71 1026.86 1026.98 1027.03 1027.02 1026.93 1026.74 1026.45 1026.07 1025.60 1025.05 1024.42 1023.73 1022.98 1022.19 1021.36
1013.56 1014.28 1014.99 1015.71 1016.42 1017.14 1017.86 1018.59 1019.32 1020.07 1020.81 1021.53 1022.21 1022.85 1023.42 1023.92 1024.34 1024.69 1024.96 1025.18 1025.37 1025.52 1025.68 1025.83 1026.00 1026.18 1026.36 1026.54 1026.70 1026.82 1026.89 1026.89 1026.82 1026.66 1026.40 1026.06 1025.62 1025.10 1024.51 1023.86 1023.14 1022.39 1021.60
1012.64 1013.34 1014.06 1014.78 1015.51 1016.23 1016.95 1017.68 1018.41 1019.14 1019.86 1020.58 1021.27 1021.92 1022.52 1023.07 1023.55 1023.97 1024.33 1024.64 1024.90 1025.14 1025.35 1025.56 1025.77 1025.97 1026.17 1026.36 1026.53 1026.66 1026.75 1026.77 1026.72 1026.58 1026.36 1026.05 1025.66 1025.18 1024.63 1024.02 1023.36 1022.65 1021.91
1011.78 1012.45 1013.15 1013.85 1014.55 1015.26 1015.95 1016.65 1017.35 1018.05 1018.75 1019.44 1020.13 1020.79 1021.43 1022.03 1022.58 1023.09 1023.54 1023.95 1024.31 1024.64 1024.94 1025.21 1025.47 1025.72 1025.95 1026.16 1026.35 1026.49 1026.59 1026.64 1026.61 1026.51 1026.32 1026.05 1025.69 1025.26 1024.75 1024.19 1023.57 1022.91 1022.22
1011.02 1011.64 1012.29 1012.95 1013.61 1014.26 1014.91 1015.55 1016.20 1016.85 1017.51 1018.17 1018.85 1019.52 1020.19 1020.84 1021.46 1022.06 1022.62 1023.13 1023.60 1024.03 1024.41 1024.77 1025.10 1025.40 1025.67 1025.91 1026.12 1026.29 1026.42 1026.48 1026.48 1026.40 1026.25 1026.01 1025.69 1025.29 1024.83 1024.31 1023.74 1023.13 1022.49
1010.31 1010.88 1011.47 1012.07 1012.67 1013.26 1013.85 1014.42 1015.01 1015.59 1016.20 1016.83 1017.49 1018.16 1018.86 1019.56 1020.25 1020.93 1021.59 1022.21 1022.78 1023.31 1023.80 1024.24 1024.63 1024.99 1025.31 1025.60 1025.84 1026.04 1026.19 1026.28 1026.30 1026.26 1026.13 1025.92 1025.63 1025.27 1024.84 1024.36 1023.83 1023.27 1022.68
1009.61 1010.13 1010.66 1011.20 1011.74 1012.27 1012.78 1013.29 1013.80 1014.33 1014.88 1015.47 1016.11 1016.78 1017.50 1018.24 1018.99 1019.75 1020.49 1021.21 1021.88 1022.51 1023.09 1023.61 1024.08 1024.51 1024.88 1025.21 1025.50 1025.73 1025.91 1026.02 1026.07 1026.05 1025.95 1025.77 1025.51 1025.18 1024.78 1024.34 1023.85 1023.33 1022.80
1008.82 1009.30 1009.79 1010.29 1010.77 1011.24 1011.70 1012.14 1012.60 1013.07 1013.58 1014.13 1014.75 1015.42 1016.14 1016.92 1017.72 1018.54 1019.36 1020.16 1020.92 1021.63 1022.29 1022.90 1023.45 1023.94 1024.37 1024.75 1025.08 1025.35 1025.57 1025.72 1025.79 1025.80 1025.72 1025.56 1025.33 1025.03 1024.67 1024.26 1023.82 1023.35 1022.87
Thickness
5711 5710 5708 5706 5705 5703 5702 5701 5700 5699 5698 5697 5695 5693 5691 5689 5688 5686 5684 5682 5681 5679 5679 5677 5676 5675 5674 5673 5672 5670 5668 5665 5658 5657 5659 5659 5657 5655 5653 5652 5650 5649 5647
5710 5708 5705 5704 5702 5700 5698 5698 5697 5697 5696 5695 5693 5691 5690 5688 5686 5684 5681 5680 5678 5676 5675 5674 5673 5673 5671 5670 5668 5666 5664 5663 5658 5653 5653 5654 5653 5652 5650 5648 5647 5645 5643
5708 5705 5702 5701 5699 5697 5696 5695 5694 5693 5693 5692 5691 5689 5687 5686 5684 5682 5680 5678 5677 5675 5674 5672 5670 5669 5667 5666 5665 5663 5661 5661 5658 5653 5650 5650 5649 5648 5646 5644 5643 5641 5640
5704 5702 5699 5697 5697 5695 5694 5693 5692 5691 5689 5688 5688 5687 5685 5684 5682 5680 5678 5676 5674 5673 5672 5670 5668 5666 5664 5663 5662 5659 5658 5655 5653 5649 5646 5645 5644 5643 5641 5638 5636 5636 5635
5701 5698 5696 5696 5694 5693 5691 5690 5689 5688 5687 5686 5684 5683 5682 5681 5679 5677 5675 5674 5672 5670 5669 5668 5667 5665 5663 5661 5660 5656 5654 5651 5648 5644 5641 5640 5638 5636 5634 5633 5631 5630 5629
5697 5695 5694 5692 5690 5689 5688 5686 5685 5683 5682 5681 5680 5679 5678 5677 5676 5674 5672 5671 5669 5667 5665 5665 5664 5662 5660 5658 5657 5655 5652 5648 5643 5640 5637 5635 5634 5633 5631 5630 5626 5623 5621
5694 5692 5691 5689 5686 5685 5684 5682 5679 5678 5677 5676 5676 5675 5673 5672 5671 5670 5668 5667 5665 5664 5663 5661 5661 5659 5656 5654 5652 5650 5648 5646 5643 5639 5635 5633 5631 5630 5628 5625 5622 5619 5616
5690 5688 5686 5684 5681 5681 5679 5677 5675 5674 5673 5672 5671 5671 5669 5669 5668 5666 5664 5663 5662 5661 5660 5659 5656 5654 5653 5650 5648 5645 5642 5640 5639 5637 5634 5632 5631 5628 5625 5622 5619 5616 5615
5684 5683 5683 5681 5678 5675 5673 5672 5672 5671 5669 5668 5667 5667 5665 5664 5664 5662 5661 5658 5657 5657 5656 5655 5653 5651 5650 5648 5644 5641 5638 5636 5635 5633 5631 5629 5626 5624 5621 5617 5613 5608 5606
5680 5679 5679 5677 5674 5672 5670 5669 5669 5667 5666 5665 5664 5664 5663 5661 5660 5659 5657 5654 5653 5652 5651 5651 5650 5648 5646 5643 5639 5636 5632 5630 5629 5627 5625 5623 5621 5618 5616 5613 5608 5603 5600
5677 5675 5673 5672 5670 5669 5666 5665 5664 5663 5662 5661 5660 5661 5660 5659 5657 5655 5653 5651 5649 5648 5646 5645 5645 5644 5641 5638 5635 5632 5629 5627 5624 5622 5619 5617 5614 5612 5610 5607 5605 5601 5596
5671 5669 5667 5667 5666 5665 5662 5660 5659 5658 5656 5656 5655 5655 5656 5655 5654 5652 5649 5647 5646 5643 5642 5641 5640 5638 5636 5633 5630 5628 5626 5623 5619 5615 5613 5610 5608 5606 5604 5602 5599 5597 5594
5664 5663 5662 5661 5660 5660 5657 5655 5653 5653 5651 5651 5650 5649 5650 5650 5649 5647 5645 5643 5640 5638 5637 5637 5635 5633 5630 5627 5625 5622 5620 5616 5612 5609 5606 5605 5603 5601 5598 5595 5593 5590 5588
5657 5656 5656 5655 5654 5654 5652 5651 5649 5648 5647 5646 5645 5645 5645 5644 5642 5640 5638 5636 5633 5631 5629 5629 5628 5626 5623 5621 5619 5617 5614 5611 5607 5604 5602 5599 5597 5594 5591 5588 5584 5582 5578
5651 5650 5649 5648 5648 5647 5647 5646 5646 5646 5645 5643 5642 5642 5640 5638 5639 5637 5634 5631 5628 5626 5623 5621 5619 5617 5615 5614 5613 5611 5608 5605 5601 5599 5595 5592 5589 5586 5583 5581 5577 5574 5570
5644 5643 5642 5641 5641 5640 5639 5639 5640 5640 5641 5640 5640 5638 5638 5637 5634 5631 5629 5627 5624 5621 5617 5615 5614 5613 5611 5610 5607 5605 5603 5600 5597 5593 5589 5586 5582 5579 5576 5573 5570 5566 5563
5637 5637 5636 5636 5635 5634 5633 5632 5630 5631 5632 5632 5632 5632 5631 5629 5627 5624 5622 5620 5617 5615 5611 5611 5610 5609 5607 5605 5603 5600 5597 5595 5591 5587 5583 5580 5576 5573 5569 5566 5562 5559 5556
5631 5631 5630 5629 5628 5628 5627 5626 5625 5624 5623 5623 5623 5623 5622 5621 5619 5617 5614 5611 5608 5607 5607 5606 5605 5604 5602 5600 5598 5595 5592 5588 5585 5581 5577 5573 5569 5566 5562 5559 5555 5552 5549
5622 5622 5622 5622 5621 5621 5621 5620 5619 5618 5618 5617 5615 5614 5613 5611 5610 5608 5606 5604 5603 5602 5601 5601 5600 5599 5597 5595 5593 5590 5587 5583 5578 5574 5570 5567 5563 5559 5555 5552 5548 5545 5541
5613 5613 5613 5613 5613 5613 5613 5612 5612 5611 5611 5611 5609 5607 5605 5602 5600 5598 5597 5597 5597 5597 5596 5595 5594 5593 5591 5589 5586 5583 5579 5576 5572 5568 5564 5560 5557 5553 5549 5545 5541 5537 5534
5603 5603 5604 5604 5604 5605 5605 5605 5605 5605 5605 5605 5604 5603 5600 5598 5596 5594 5592 5591 5591 5591 5590 5588 5587 5585 5583 5581 5579 5576 5573 5570 5566 5562 5558 5554 5550 5546 5543 5539 5535 5531 5527
5594 5595 5595 5595 5596 5596 5597 5598 5599 5598 5598 5598 5597 5596 5594 5592 5590 5589 5587 5586 5585 5584 5583 5581 5579 5578 5576 5574 5571 5569 5566 5562 5559 5555 5551 5547 5543 5539 5535 5531 5527 5523 5518
5586 5586 5586 5586 5587 5588 5589 5590 5590 5590 5590 5589 5589 5587 5585 5583 5582 5581 5580 5579 5577 5576 5575 5573 5571 5569 5567 5565 5563 5561 5558 5555 5551 5548 5543 5539 5535 5531 5527 5523 5519 5514 5510
5576 5576 5576 5577 5578 5578 5579 5579 5580 5580 5580 5579 5579 5578 5576 5574 5572 5572 5571 5570 5568 5567 5565 5563 5562 5560 5558 5555 5553 5551 5548 5546 5543 5539 5535 5530 5525 5522 5518 5514 5510 5506 5501
5566 5566 5566 5566 5567 5567 5568 5568 5568 5568 5568 5568 5568 5567 5565 5563 5562 5561 5560 5559 5558 5556 5555 5553 5551 5549 5546 5544 5542 5540 5538 5535 5532 5529 5525 5521 5516 5513 5509 5504 5500 5496 5491
5556 5556 5556 5556 5556 5556 5556 5556 5556 5556 5556 5556 5556 5555 5554 5553 5551 5550 5549 5547 5546 5545 5544 5542 5540 5538 5536 5534 5532 5530 5528 5525 5522 5519 5515 5511 5507 5503 5499 5494 5490 5486 5481